Weather History for Bowling Green, KY

Change the Weather History Date:

Sunday, May 19, 2013

  Actual Average Record
Temperature  
Mean Temperature 75 °F 67 °F  
Max Temperature 86 °F 79 °F 93 °F (1938)
Min Temperature 64 °F 56 °F 39 °F (1894)
Degree Days  
Heating Degree Days 0 2  
Month to date heating degree days 51 59  
Since 1 July heating degree days 3869 4028  
Cooling Degree Days 10 4  
Month to date cooling degree days 65 53  
Year to date cooling degree days 118 89  
Growing Degree Days 25 (Base 50)    
Moisture  
Dew Point 65 °F    
Average Humidity 79    
Maximum Humidity 93    
Minimum Humidity 65    
Precipitation  
Precipitation 0.14 in 0.17 in 1.95 in (1989)
Month to date precipitation 4.02 3.52  
Year to date precipitation 23.62 19.84  
Snow  
Snow 0.00 in 0.00 in 0.00 in ()
Month to date snowfall 0.0 0.0  
Since 1 July snowfall 3.8 9.1  
Snow Depth 0.00 in    
Sea Level Pressure  
Sea Level Pressure 29.97 in    
Wind  
Wind Speed 5 mph (SSE)    
Max Wind Speed 21 mph    
Max Gust Speed 25 mph    
Visibility 6 miles    
Events Fog , Rain , Thunderstorm    
T = Trace of Precipitation, MM = Missing Value Source: NWS Daily Summary

Daily Weather History Graph

Daily Weather History Graph

Search for Another Location

Airport:

Trip Planner

Search our weather history database for the weather conditions in past years. The results will help you decide how hot, cold, wet, or windy it might be!

Date:

Astronomy

May. 19, 2013 Rise Set
Actual Time 5:34 AM CDT 7:50 PM CDT
Civil Twilight 5:05 AM CDT 8:19 PM CDT
Nautical Twilight 4:29 AM CDT 8:55 PM CDT
Astronomical Twilight 3:49 AM CDT 9:35 PM CDT
Moon 2:02 PM CDT (5/19) 1:48 AM CDT (5/19)
Length of Visible Light 15h 14m
Length of Day
14h 15m
Waxing Gibbous, 65% of the Moon is Illuminated
May 19
Waxing Gibbous
May 24
Full
May 31
Last Quarter
Jun 8
New
Jun 16
First Quarter

Hourly Weather History & Observations

Time (CDT) Temp. Heat Index Dew Point Humidity Pressure Visibility Wind Dir Wind Speed Gust Speed Precip Events Conditions
12:05 AM 68.0 °F - 64.4 °F 88% 29.97 in 0.8 mi Calm Calm - N/A   Clear
12:14 AM 66.2 °F - 62.6 °F 88% 29.97 in 0.5 mi Calm Calm - N/A Fog Fog
12:19 AM 66.2 °F - 62.6 °F 88% 29.97 in 1.0 mi Calm Calm - N/A   Clear
12:34 AM 66.2 °F - 62.6 °F 88% 29.97 in 0.8 mi Calm Calm - N/A   Clear
12:53 AM 66.0 °F - 63.0 °F 90% 29.96 in 0.8 mi Calm Calm - N/A   Clear
12:58 AM 66.2 °F - 64.4 °F 94% 29.98 in 0.5 mi Calm Calm - N/A Fog Fog
1:04 AM 64.4 °F - 62.6 °F 94% 29.98 in 1.0 mi Calm Calm - N/A   Partly Cloudy
1:08 AM 64.4 °F - 62.6 °F 94% 29.98 in 2.0 mi Calm Calm - N/A   Scattered Clouds
1:14 AM 64.4 °F - 62.6 °F 94% 29.97 in 1.2 mi Calm Calm - N/A   Mostly Cloudy
1:22 AM 64.4 °F - 62.6 °F 94% 29.97 in 0.8 mi Calm Calm - N/A   Mostly Cloudy
1:36 AM 66.2 °F - 62.6 °F 88% 29.97 in 0.5 mi Calm Calm - N/A Fog Fog
1:53 AM 66.0 °F - 64.0 °F 93% 29.96 in 0.8 mi Calm Calm - N/A   Overcast
2:00 AM 66.2 °F - 64.4 °F 94% 29.97 in 1.5 mi Calm Calm - N/A   Overcast
2:04 AM 66.2 °F - 64.4 °F 94% 29.97 in 3.0 mi Calm Calm - N/A   Overcast
2:19 AM 66.2 °F - 64.4 °F 94% 29.97 in 1.8 mi Calm Calm - N/A   Mostly Cloudy
2:29 AM 64.4 °F - 62.6 °F 94% 29.97 in 2.0 mi Calm Calm - N/A   Mostly Cloudy
2:37 AM 64.4 °F - 62.6 °F 94% 29.97 in 9.0 mi Calm Calm - N/A   Mostly Cloudy
2:45 AM 64.4 °F - 62.6 °F 94% 29.97 in 1.8 mi Calm Calm - N/A   Mostly Cloudy
2:53 AM 64.9 °F - 62.1 °F 90% 29.96 in 2.5 mi Calm Calm - N/A   Mostly Cloudy
3:00 AM 64.4 °F - 62.6 °F 94% 29.97 in 8.0 mi Calm Calm - N/A   Mostly Cloudy
3:37 AM 66.2 °F - 62.6 °F 88% 29.97 in 2.5 mi Calm Calm - N/A   Overcast
3:40 AM 66.2 °F - 62.6 °F 88% 29.97 in 1.2 mi Calm Calm - N/A   Overcast
3:53 AM 64.9 °F - 63.0 °F 93% 29.96 in 1.8 mi Calm Calm - N/A   Overcast
3:56 AM 66.2 °F - 62.6 °F 88% 29.97 in 3.0 mi Calm Calm - N/A   Overcast
4:53 AM 64.9 °F - 63.0 °F 93% 29.95 in 7.0 mi Calm Calm - N/A   Mostly Cloudy
5:53 AM 64.0 °F - 61.0 °F 90% 29.95 in 8.0 mi NE 3.5 mph - N/A   Partly Cloudy
6:41 AM 68.0 °F - 64.4 °F 88% 29.96 in 7.0 mi Calm Calm - N/A Thunderstorm Mostly Cloudy
7:04 AM 68.0 °F - 64.4 °F 88% 29.97 in 9.0 mi Calm Calm - N/A Thunderstorm Thunderstorm
7:17 AM 69.8 °F - 66.2 °F 88% 29.98 in 6.0 mi East 3.5 mph - 0.01 in Rain , Thunderstorm Light Thunderstorms and Rain
7:25 AM 69.8 °F - 66.2 °F 88% 29.99 in 2.5 mi Calm Calm - 0.09 in Rain , Thunderstorm Heavy Thunderstorms and Rain
7:32 AM 69.8 °F - 66.2 °F 88% 29.99 in 3.0 mi Calm Calm - 0.09 in Rain , Thunderstorm Light Thunderstorms and Rain
7:51 AM 69.8 °F - 66.2 °F 88% 30.00 in 2.5 mi Calm Calm - 0.13 in Rain , Thunderstorm Light Thunderstorms and Rain
7:53 AM 70.0 °F - 66.9 °F 90% 29.99 in 2.5 mi Calm Calm - 0.14 in Rain , Thunderstorm Thunderstorms and Rain
8:06 AM 69.8 °F - 66.2 °F 88% 30.01 in 5.0 mi East 5.8 mph - 0.00 in Rain , Thunderstorm Light Thunderstorms and Rain
8:19 AM 69.8 °F - 66.2 °F 88% 30.02 in 10.0 mi SE 6.9 mph - 0.00 in Rain , Thunderstorm Light Thunderstorms and Rain
8:43 AM 69.8 °F - 64.4 °F 83% 30.01 in 10.0 mi South 3.5 mph - 0.00 in   Overcast
8:53 AM 69.1 °F - 64.0 °F 84% 30.01 in 10.0 mi SSE 4.6 mph - 0.00 in   Overcast
9:36 AM 73.4 °F - 66.2 °F 78% 30.00 in 10.0 mi Variable 3.5 mph - N/A   Scattered Clouds
9:53 AM 73.9 °F - 68.0 °F 82% 30.00 in 10.0 mi SSW 6.9 mph - N/A   Scattered Clouds
10:04 AM 75.2 °F - 69.8 °F 83% 30.01 in 10.0 mi SW 6.9 mph - N/A   Mostly Cloudy
10:53 AM 78.1 °F - 70.0 °F 76% 29.97 in 10.0 mi SW 9.2 mph - N/A   Scattered Clouds
11:53 AM 79.0 °F - 70.0 °F 74% 29.95 in 10.0 mi West 6.9 mph - N/A   Clear
12:53 PM 82.9 °F 87.5 °F 71.1 °F 67% 29.95 in 10.0 mi Calm Calm - N/A   Scattered Clouds
1:00 PM 82.4 °F 87.2 °F 71.6 °F 70% 29.97 in 10.0 mi SSE 4.6 mph - N/A   Mostly Cloudy
2:23 PM 82.4 °F 88.2 °F 73.4 °F 74% 29.95 in 10.0 mi SSE 11.5 mph - N/A   Mostly Cloudy
3:53 PM 86.0 °F 93.0 °F 73.0 °F 65% 29.91 in 10.0 mi SSE 9.2 mph - N/A   Partly Cloudy
4:53 PM 84.9 °F 90.7 °F 72.0 °F 65% 29.92 in 10.0 mi South 5.8 mph - N/A   Clear
5:53 PM 84.9 °F 90.7 °F 72.0 °F 65% 29.91 in 10.0 mi South 10.4 mph - N/A   Partly Cloudy
6:53 PM 79.0 °F - 69.1 °F 72% 29.92 in 10.0 mi South 11.5 mph - N/A   Partly Cloudy
7:53 PM 75.9 °F - 66.9 °F 74% 29.93 in 10.0 mi SSE 10.4 mph 17.3 mph N/A   Clear
8:53 PM 75.0 °F - 66.0 °F 73% 29.93 in 10.0 mi South 9.2 mph - N/A   Clear
9:53 PM 73.9 °F - 64.9 °F 73% 29.94 in 10.0 mi South 8.1 mph - N/A   Clear
11:53 PM 70.0 °F - 64.0 °F 81% 29.95 in 10.0 mi Variable 3.5 mph - N/A   Clear